����������;��������(kWh)
2016-06-06 00:00;85,8
2016-06-06 00:15;83,25
2016-06-06 00:30;88,1
2016-06-06 00:45;81,75
2016-06-06 01:00;89,2
2016-06-06 01:15;104,5
2016-06-06 01:30;96,3
2016-06-06 01:45;86,4
2016-06-06 02:00;85,25
2016-06-06 02:15;83,55
2016-06-06 02:30;86,05
2016-06-06 02:45;83,8
2016-06-06 03:00;83
2016-06-06 03:15;81,4
2016-06-06 03:30;84,05
2016-06-06 03:45;82,1
2016-06-06 04:00;83,1
2016-06-06 04:15;82,95
2016-06-06 04:30;83,55
2016-06-06 04:45;83,2
2016-06-06 05:00;81,3
2016-06-06 05:15;81
2016-06-06 05:30;82,4
2016-06-06 05:45;85,25
2016-06-06 06:00;86,2
2016-06-06 06:15;84,65
2016-06-06 06:30;88,5
2016-06-06 06:45;85,25
2016-06-06 07:00;84
2016-06-06 07:15;88,95
2016-06-06 07:30;90,95
2016-06-06 07:45;151,5
2016-06-06 08:00;161,8
2016-06-06 08:15;133,15
2016-06-06 08:30;137,2
2016-06-06 08:45;141
2016-06-06 09:00;152,5
2016-06-06 09:15;165,05
2016-06-06 09:30;169,6
2016-06-06 09:45;151,85
2016-06-06 10:00;163,3
2016-06-06 10:15;167,55
2016-06-06 10:30;173,15
2016-06-06 10:45;187,3
2016-06-06 11:00;202,85
2016-06-06 11:15;188,8
2016-06-06 11:30;193,85
2016-06-06 11:45;202,1
2016-06-06 12:00;210,9
2016-06-06 12:15;222,1
2016-06-06 12:30;226
2016-06-06 12:45;218,75
2016-06-06 13:00;196,8
2016-06-06 13:15;206,05
2016-06-06 13:30;191,9
2016-06-06 13:45;221,1
2016-06-06 14:00;221,25
2016-06-06 14:15;211,25
2016-06-06 14:30;214,1
2016-06-06 14:45;213,15
2016-06-06 15:00;203,65
2016-06-06 15:15;214
2016-06-06 15:30;208,15
2016-06-06 15:45;186,65
2016-06-06 16:00;184,85
2016-06-06 16:15;191,55
2016-06-06 16:30;173,7
2016-06-06 16:45;183,7
2016-06-06 17:00;187,35
2016-06-06 17:15;174,4
2016-06-06 17:30;178,1
2016-06-06 17:45;173,65
2016-06-06 18:00;176,95
2016-06-06 18:15;172,65
2016-06-06 18:30;158,35
2016-06-06 18:45;158,75
2016-06-06 19:00;166,2
2016-06-06 19:15;145,15
2016-06-06 19:30;141,85
2016-06-06 19:45;135,2
2016-06-06 20:00;131,05
2016-06-06 20:15;129,5
2016-06-06 20:30;124,7
2016-06-06 20:45;120,25
2016-06-06 21:00;126,7
2016-06-06 21:15;123,3
2016-06-06 21:30;120,6
2016-06-06 21:45;116,3
2016-06-06 22:00;106,85
2016-06-06 22:15;109,3
2016-06-06 22:30;108,35
2016-06-06 22:45;111,4
2016-06-06 23:00;108,4
2016-06-06 23:15;94,45
2016-06-06 23:30;94,45
2016-06-06 23:45;95,65
2016-06-07 00:00;87,9
2016-06-07 00:15;87,65
2016-06-07 00:30;89,35
2016-06-07 00:45;84,65
2016-06-07 01:00;82,45
2016-06-07 01:15;81,65
2016-06-07 01:30;80,6
2016-06-07 01:45;83,95
2016-06-07 02:00;77,95
2016-06-07 02:15;78,2
2016-06-07 02:30;77,75
2016-06-07 02:45;77,75
2016-06-07 03:00;77
2016-06-07 03:15;74,6
2016-06-07 03:30;77,55
2016-06-07 03:45;75
2016-06-07 04:00;75,55
2016-06-07 04:15;73,85
2016-06-07 04:30;73,75
2016-06-07 04:45;75,6
2016-06-07 05:00;78,4
2016-06-07 05:15;92,1
2016-06-07 05:30;84,75
2016-06-07 05:45;87,9
2016-06-07 06:00;83,55
2016-06-07 06:15;94,85
2016-06-07 06:30;84,55
2016-06-07 06:45;85,15
2016-06-07 07:00;87,7
2016-06-07 07:15;90,6
2016-06-07 07:30;99,15
2016-06-07 07:45;153,2
2016-06-07 08:00;156,8
2016-06-07 08:15;122,85
2016-06-07 08:30;125,55
2016-06-07 08:45;134,9
2016-06-07 09:00;150,75
2016-06-07 09:15;157,85
2016-06-07 09:30;143,45
2016-06-07 09:45;158,45
2016-06-07 10:00;169
2016-06-07 10:15;178,1
2016-06-07 10:30;199,45
2016-06-07 10:45;204,15
2016-06-07 11:00;198,3
2016-06-07 11:15;215,7
2016-06-07 11:30;222,6
2016-06-07 11:45;218,4
2016-06-07 12:00;225,9
2016-06-07 12:15;213,05
2016-06-07 12:30;221,7
2016-06-07 12:45;226,1
2016-06-07 13:00;218,8
2016-06-07 13:15;234,05
2016-06-07 13:30;226
2016-06-07 13:45;221,65
2016-06-07 14:00;225,5
2016-06-07 14:15;216,15
2016-06-07 14:30;213,2
2016-06-07 14:45;217,2
2016-06-07 15:00;209,3
2016-06-07 15:15;209,7
2016-06-07 15:30;217,55
2016-06-07 15:45;214,85
2016-06-07 16:00;211,5
2016-06-07 16:15;192,6
2016-06-07 16:30;192,35
2016-06-07 16:45;178,45
2016-06-07 17:00;180,1
2016-06-07 17:15;171,55
2016-06-07 17:30;164,75
2016-06-07 17:45;160,5
2016-06-07 18:00;161
2016-06-07 18:15;169,2
2016-06-07 18:30;158,9
2016-06-07 18:45;158,55
2016-06-07 19:00;152,75
2016-06-07 19:15;138,55
2016-06-07 19:30;140,3
2016-06-07 19:45;130,45
2016-06-07 20:00;132,85
2016-06-07 20:15;133,75
2016-06-07 20:30;132
2016-06-07 20:45;133,15
2016-06-07 21:00;129
2016-06-07 21:15;124,3
2016-06-07 21:30;118,65
2016-06-07 21:45;112,05
2016-06-07 22:00;103,55
2016-06-07 22:15;105,25
2016-06-07 22:30;104,45
2016-06-07 22:45;104,4
2016-06-07 23:00;112,25
2016-06-07 23:15;104,95
2016-06-07 23:30;101,45
2016-06-07 23:45;95,9
2016-06-08 00:00;85,5
2016-06-08 00:15;86,1
2016-06-08 00:30;88,55
2016-06-08 00:45;89,6
2016-06-08 01:00;89,85
2016-06-08 01:15;83,5
2016-06-08 01:30;82,4
2016-06-08 01:45;79,15
2016-06-08 02:00;80,85
2016-06-08 02:15;79,3
2016-06-08 02:30;79,85
2016-06-08 02:45;77,3
2016-06-08 03:00;80,3
2016-06-08 03:15;76,95
2016-06-08 03:30;77,15
2016-06-08 03:45;78,1
2016-06-08 04:00;75,9
2016-06-08 04:15;76,5
2016-06-08 04:30;74,3
2016-06-08 04:45;78,1
2016-06-08 05:00;75,3
2016-06-08 05:15;75,4
2016-06-08 05:30;85,35
2016-06-08 05:45;99,15
2016-06-08 06:00;108,2
2016-06-08 06:15;106,35
2016-06-08 06:30;97,9
2016-06-08 06:45;96,25
2016-06-08 07:00;94,15
2016-06-08 07:15;91,8
2016-06-08 07:30;92,9
2016-06-08 07:45;156,3
2016-06-08 08:00;157,55
2016-06-08 08:15;120,6
2016-06-08 08:30;129,6
2016-06-08 08:45;130,75
2016-06-08 09:00;140,95
2016-06-08 09:15;147,95
2016-06-08 09:30;134,3
2016-06-08 09:45;151,45
2016-06-08 10:00;158,2
2016-06-08 10:15;148,7
2016-06-08 10:30;161,35
2016-06-08 10:45;170,25
2016-06-08 11:00;180,85
2016-06-08 11:15;172,45
2016-06-08 11:30;189,7
2016-06-08 11:45;190,45
2016-06-08 12:00;189,15
2016-06-08 12:15;198
2016-06-08 12:30;186,8
2016-06-08 12:45;192,4
2016-06-08 13:00;199,1
2016-06-08 13:15;195,9
2016-06-08 13:30;198,7
2016-06-08 13:45;205,25
2016-06-08 14:00;202,65
2016-06-08 14:15;189,6
2016-06-08 14:30;194,9
2016-06-08 14:45;188,25
2016-06-08 15:00;196,85
2016-06-08 15:15;182,9
2016-06-08 15:30;173,25
2016-06-08 15:45;166
2016-06-08 16:00;174,6
2016-06-08 16:15;159,05
2016-06-08 16:30;150,7
2016-06-08 16:45;152,35
2016-06-08 17:00;154,8
2016-06-08 17:15;143,25
2016-06-08 17:30;137,45
2016-06-08 17:45;137,05
2016-06-08 18:00;130,6
2016-06-08 18:15;139,15
2016-06-08 18:30;131,75
2016-06-08 18:45;128,6
2016-06-08 19:00;130,65
2016-06-08 19:15;127,65
2016-06-08 19:30;131,6
2016-06-08 19:45;124,6
2016-06-08 20:00;122,35
2016-06-08 20:15;114,15
2016-06-08 20:30;109,85
2016-06-08 20:45;109,05
2016-06-08 21:00;106,55
2016-06-08 21:15;106,8
2016-06-08 21:30;103,75
2016-06-08 21:45;103,45
2016-06-08 22:00;97,3
2016-06-08 22:15;96,85
2016-06-08 22:30;97,35
2016-06-08 22:45;93,55
2016-06-08 23:00;97,85
2016-06-08 23:15;94,15
2016-06-08 23:30;94,7
2016-06-08 23:45;98,3
2016-06-09 00:00;84,15
2016-06-09 00:15;85,15
2016-06-09 00:30;85,1
2016-06-09 00:45;83,1
2016-06-09 01:00;78,2
2016-06-09 01:15;75,2
2016-06-09 01:30;75,85
2016-06-09 01:45;75,5
2016-06-09 02:00;74,3
2016-06-09 02:15;76,2
2016-06-09 02:30;77,45
2016-06-09 02:45;76,25
2016-06-09 03:00;77,6
2016-06-09 03:15;76,15
2016-06-09 03:30;74,6
2016-06-09 03:45;75,85
2016-06-09 04:00;76,25
2016-06-09 04:15;73,1
2016-06-09 04:30;74,75
2016-06-09 04:45;75,85
2016-06-09 05:00;74,8
2016-06-09 05:15;74,9
2016-06-09 05:30;75,3
2016-06-09 05:45;77,35
2016-06-09 06:00;93,6
2016-06-09 06:15;106,85
2016-06-09 06:30;99,25
2016-06-09 06:45;95,65
2016-06-09 07:00;91,8
2016-06-09 07:15;92,6
2016-06-09 07:30;92,15
2016-06-09 07:45;151,15
2016-06-09 08:00;144,2
2016-06-09 08:15;113,75
2016-06-09 08:30;130,05
2016-06-09 08:45;127,75
2016-06-09 09:00;145,65
2016-06-09 09:15;145,5
2016-06-09 09:30;151,1
2016-06-09 09:45;145,8
2016-06-09 10:00;166,4
2016-06-09 10:15;157,75
2016-06-09 10:30;169,65
2016-06-09 10:45;168,55
2016-06-09 11:00;189,05
2016-06-09 11:15;183,7
2016-06-09 11:30;188,9
2016-06-09 11:45;197,15
2016-06-09 12:00;192,45
2016-06-09 12:15;185,35
2016-06-09 12:30;190,4
2016-06-09 12:45;189,25
2016-06-09 13:00;180,2
2016-06-09 13:15;193,9
2016-06-09 13:30;191,3
2016-06-09 13:45;188,15
2016-06-09 14:00;182,7
2016-06-09 14:15;184,45
2016-06-09 14:30;186,1
2016-06-09 14:45;178,25
2016-06-09 15:00;174,9
2016-06-09 15:15;173,25
2016-06-09 15:30;157,95
2016-06-09 15:45;166,4
2016-06-09 16:00;162,65
2016-06-09 16:15;146,6
2016-06-09 16:30;146,95
2016-06-09 16:45;143,9
2016-06-09 17:00;142,9
2016-06-09 17:15;134,55
2016-06-09 17:30;128,25
2016-06-09 17:45;130,05
2016-06-09 18:00;128,7
2016-06-09 18:15;129,3
2016-06-09 18:30;124,1
2016-06-09 18:45;126,2
2016-06-09 19:00;125,5
2016-06-09 19:15;120,8
2016-06-09 19:30;121,5
2016-06-09 19:45;112,9
2016-06-09 20:00;114,3
2016-06-09 20:15;112,45
2016-06-09 20:30;110,1
2016-06-09 20:45;119,4
2016-06-09 21:00;118,15
2016-06-09 21:15;117,3
2016-06-09 21:30;112,6
2016-06-09 21:45;104,25
2016-06-09 22:00;100,05
2016-06-09 22:15;94,45
2016-06-09 22:30;95,75
2016-06-09 22:45;96,25
2016-06-09 23:00;104,9
2016-06-09 23:15;96,65
2016-06-09 23:30;94
2016-06-09 23:45;96,5
2016-06-10 00:00;87,25
2016-06-10 00:15;85,15
2016-06-10 00:30;79,1
2016-06-10 00:45;80,15
2016-06-10 01:00;82
2016-06-10 01:15;84,2
2016-06-10 01:30;87,35
2016-06-10 01:45;86,35
2016-06-10 02:00;84,5
2016-06-10 02:15;87,75
2016-06-10 02:30;86
2016-06-10 02:45;83,65
2016-06-10 03:00;82,5
2016-06-10 03:15;80,85
2016-06-10 03:30;81,6
2016-06-10 03:45;80,15
2016-06-10 04:00;76,1
2016-06-10 04:15;76,25
2016-06-10 04:30;75,55
2016-06-10 04:45;74,1
2016-06-10 05:00;76,4
2016-06-10 05:15;73,7
2016-06-10 05:30;72,75
2016-06-10 05:45;75,25
2016-06-10 06:00;73,75
2016-06-10 06:15;78,9
2016-06-10 06:30;79,1
2016-06-10 06:45;99,35
2016-06-10 07:00;93,3
2016-06-10 07:15;94,85
2016-06-10 07:30;90,8
2016-06-10 07:45;145,4
2016-06-10 08:00;135,6
2016-06-10 08:15;108,85
2016-06-10 08:30;127,8
2016-06-10 08:45;125,5
2016-06-10 09:00;146,7
2016-06-10 09:15;143,25
2016-06-10 09:30;144,75
2016-06-10 09:45;137,65
2016-06-10 10:00;158,55
2016-06-10 10:15;150,7
2016-06-10 10:30;174,35
2016-06-10 10:45;169,55
2016-06-10 11:00;183,7
2016-06-10 11:15;170,7
2016-06-10 11:30;183,6
2016-06-10 11:45;190,6
2016-06-10 12:00;193,15
2016-06-10 12:15;201,3
2016-06-10 12:30;212
2016-06-10 12:45;216,65
2016-06-10 13:00;217,85
2016-06-10 13:15;213,45
2016-06-10 13:30;210,8
2016-06-10 13:45;226,15
2016-06-10 14:00;223,6
2016-06-10 14:15;210,4
2016-06-10 14:30;210,55
2016-06-10 14:45;195,1
2016-06-10 15:00;180,35
2016-06-10 15:15;188,45
2016-06-10 15:30;187,2
2016-06-10 15:45;171,75
2016-06-10 16:00;172,5
2016-06-10 16:15;156,35
2016-06-10 16:30;149,45
2016-06-10 16:45;154,1
2016-06-10 17:00;152,4
2016-06-10 17:15;138,95
2016-06-10 17:30;140,7
2016-06-10 17:45;138,9
2016-06-10 18:00;132,8
2016-06-10 18:15;138,85
2016-06-10 18:30;129,05
2016-06-10 18:45;132,6
2016-06-10 19:00;131,75
2016-06-10 19:15;120,35
2016-06-10 19:30;124,35
2016-06-10 19:45;123,3
2016-06-10 20:00;116,8
2016-06-10 20:15;113,8
2016-06-10 20:30;119,4
2016-06-10 20:45;123,15
2016-06-10 21:00;119,75
2016-06-10 21:15;112
2016-06-10 21:30;111,85
2016-06-10 21:45;110
2016-06-10 22:00;99,65
2016-06-10 22:15;96,1
2016-06-10 22:30;101,05
2016-06-10 22:45;97,75
2016-06-10 23:00;103,55
2016-06-10 23:15;98,4
2016-06-10 23:30;94,5
2016-06-10 23:45;98,9
2016-06-11 00:00;88,3
2016-06-11 00:15;89,3
2016-06-11 00:30;91,2
2016-06-11 00:45;89,55
2016-06-11 01:00;90
2016-06-11 01:15;81,5
2016-06-11 01:30;76,25
2016-06-11 01:45;76,45
2016-06-11 02:00;73,7
2016-06-11 02:15;76
2016-06-11 02:30;75,55
2016-06-11 02:45;75,1
2016-06-11 03:00;75,45
2016-06-11 03:15;74,85
2016-06-11 03:30;75,15
2016-06-11 03:45;75,1
2016-06-11 04:00;74,4
2016-06-11 04:15;73,95
2016-06-11 04:30;72,05
2016-06-11 04:45;74
2016-06-11 05:00;73,8
2016-06-11 05:15;72,4
2016-06-11 05:30;73,55
2016-06-11 05:45;71,2
2016-06-11 06:00;72,55
2016-06-11 06:15;68,5
2016-06-11 06:30;70
2016-06-11 06:45;73,3
2016-06-11 07:00;71
2016-06-11 07:15;68,4
2016-06-11 07:30;73,4
2016-06-11 07:45;71,7
2016-06-11 08:00;72,6
2016-06-11 08:15;78,4
2016-06-11 08:30;74,5
2016-06-11 08:45;74,6
2016-06-11 09:00;71,2
2016-06-11 09:15;69,7
2016-06-11 09:30;71,45
2016-06-11 09:45;68,8
2016-06-11 10:00;74,85
2016-06-11 10:15;74,2
2016-06-11 10:30;75
2016-06-11 10:45;138,2
2016-06-11 11:00;120,8
2016-06-11 11:15;90,6
2016-06-11 11:30;97,85
2016-06-11 11:45;96,3
2016-06-11 12:00;111,15
2016-06-11 12:15;109,8
2016-06-11 12:30;106,85
2016-06-11 12:45;102,6
2016-06-11 13:00;100,9
2016-06-11 13:15;93
2016-06-11 13:30;95,25
2016-06-11 13:45;92,3
2016-06-11 14:00;87,35
2016-06-11 14:15;86,45
2016-06-11 14:30;87,9
2016-06-11 14:45;85,35
2016-06-11 15:00;83,15
2016-06-11 15:15;87,15
2016-06-11 15:30;84,05
2016-06-11 15:45;86,55
2016-06-11 16:00;83,95
2016-06-11 16:15;81,95
2016-06-11 16:30;85,05
2016-06-11 16:45;87,5
2016-06-11 17:00;85,8
2016-06-11 17:15;83,9
2016-06-11 17:30;83,75
2016-06-11 17:45;86,45
2016-06-11 18:00;87
2016-06-11 18:15;91,35
2016-06-11 18:30;91,15
2016-06-11 18:45;93,35
2016-06-11 19:00;101,35
2016-06-11 19:15;97,4
2016-06-11 19:30;90,5
2016-06-11 19:45;91,6
2016-06-11 20:00;89,1
2016-06-11 20:15;88,9
2016-06-11 20:30;88,4
2016-06-11 20:45;88,45
2016-06-11 21:00;90,25
2016-06-11 21:15;89,05
2016-06-11 21:30;100,95
2016-06-11 21:45;97,7
2016-06-11 22:00;94,6
2016-06-11 22:15;96,7
2016-06-11 22:30;99,3
2016-06-11 22:45;102,35
2016-06-11 23:00;107,4
2016-06-11 23:15;103,8
2016-06-11 23:30;101,85
2016-06-11 23:45;101,55
2016-06-12 00:00;91,85
2016-06-12 00:15;93,35
2016-06-12 00:30;89,75
2016-06-12 00:45;87,9
2016-06-12 01:00;88,65
2016-06-12 01:15;87,25
2016-06-12 01:30;88,5
2016-06-12 01:45;83,95
2016-06-12 02:00;83,25
2016-06-12 02:15;85,1
2016-06-12 02:30;84,8
2016-06-12 02:45;84,35
2016-06-12 03:00;84,65
2016-06-12 03:15;84,35
2016-06-12 03:30;86,4
2016-06-12 03:45;84,7
2016-06-12 04:00;85,55
2016-06-12 04:15;84,05
2016-06-12 04:30;83,65
2016-06-12 04:45;82,2
2016-06-12 05:00;83,1
2016-06-12 05:15;81,4
2016-06-12 05:30;82,95
2016-06-12 05:45;86,25
2016-06-12 06:00;88,85
2016-06-12 06:15;92,3
2016-06-12 06:30;94,45
2016-06-12 06:45;95,05
2016-06-12 07:00;87,3
2016-06-12 07:15;85,25
2016-06-12 07:30;86,5
2016-06-12 07:45;86,75
2016-06-12 08:00;83,9
2016-06-12 08:15;85,45
2016-06-12 08:30;83,5
2016-06-12 08:45;84,7
2016-06-12 09:00;82,2
2016-06-12 09:15;82,35
2016-06-12 09:30;83,05
2016-06-12 09:45;82,15
2016-06-12 10:00;85,3
2016-06-12 10:15;87,05
2016-06-12 10:30;88,75
2016-06-12 10:45;94,85
2016-06-12 11:00;93,1
2016-06-12 11:15;91,1
2016-06-12 11:30;94,55
2016-06-12 11:45;93,45
2016-06-12 12:00;92,05
2016-06-12 12:15;91,8
2016-06-12 12:30;94,6
2016-06-12 12:45;92,8
2016-06-12 13:00;93,8
2016-06-12 13:15;93,15
2016-06-12 13:30;93,2
2016-06-12 13:45;90,1
2016-06-12 14:00;92,8
2016-06-12 14:15;94
2016-06-12 14:30;93,6
2016-06-12 14:45;98,15
2016-06-12 15:00;100,7
2016-06-12 15:15;103,25
2016-06-12 15:30;103,45
2016-06-12 15:45;97,15
2016-06-12 16:00;96,4
2016-06-12 16:15;98,85
2016-06-12 16:30;101,45
2016-06-12 16:45;103,8
2016-06-12 17:00;99,7
2016-06-12 17:15;97,2
2016-06-12 17:30;98,25
2016-06-12 17:45;99,4
2016-06-12 18:00;97,2
2016-06-12 18:15;103,95
2016-06-12 18:30;102,4
2016-06-12 18:45;101,5
2016-06-12 19:00;110,75
2016-06-12 19:15;106,1
2016-06-12 19:30;99,55
2016-06-12 19:45;99,85
2016-06-12 20:00;103,25
2016-06-12 20:15;99,85
2016-06-12 20:30;100,35
2016-06-12 20:45;101,8
2016-06-12 21:00;106,85
2016-06-12 21:15;110,55
2016-06-12 21:30;108,75
2016-06-12 21:45;102,2
2016-06-12 22:00;93,65
2016-06-12 22:15;94,25
2016-06-12 22:30;95,8
2016-06-12 22:45;94,75
2016-06-12 23:00;102,65
2016-06-12 23:15;96,15
2016-06-12 23:30;100,5
2016-06-12 23:45;101,35

